COSMOS 1365 FUEL CORE

Satellite information

Favourite Embed

Satellite Type and Status

DEBRISIN ORBIT

Key statistics

Satellite COSMOS 1365 FUEL CORE at a glance.

Uptime

15920

Days in orbit

Revolutions

≈ 13.9

Per day

Orbit

LEO

Low Earth Orbit

Inclination

65.1

Latest

Satellite identification and parameters

Extended collection of information and parameters for COSMOS 1365 FUEL CORE.

Object identification

Identified? True

Debris? False

Object name: COSMOS 1365 FUEL CORE

International designator: 1982-043D

Object number (NORAD): 13594

Object ID (CCSDS): 13594

Country: COMMONWEALTH OF INDEPENDENT STATES (CIS)

Current information (Y/N): Y

RCS size: MEDIUM

Orbital parameters

Period: 103.36 minutes

Inclination: 65.0699 deg

SMA: 7295.594 km

Apoapsis: 946.381 km

Periapsis: 888.536 km

RAAN: 74.0014 deg

Eccentricy: 0.00396441

Argument of periapsis: 43.2878 deg

Mean anomaly: 317.1291 deg

Mean motion: 13.93194678 rev/day

Mean motion (dot): -0.0000008 rev/day2

B* drag term: 0.000007638868 1/REarth

Two-line elements (TLE)

Creation date: Dec. 14, 2025, 3:07 a.m.

Reference frame: TEME

Reference center: EARTH

Epoch: Dec. 13, 2025, 2:56 p.m. UTC

TLE line 0: 0 COSMOS 1365 FUEL CORE

TLE line 1: 1 13594U 82043D 25347.62265914 -.00000080 00000-0 76389-5 0 9992

TLE line 2: 2 13594 65.0699 74.0014 0039644 43.2878 317.1291 13.93194678220024

Live tracking on map

Real-time ground track for satellite COSMOS 1365 FUEL CORE.

In-orbit conjunctions

A list of the most updated potential collisions computed for object COSMOS 1365 FUEL CORE.

Target Orbit TCA Probability of collision Miss distance Type
FENGYUN 1C DEB SSO 2025-11-06 21:04:41 0.0008262664 57.0 (m) DEBRIS

Associated space launch

Active radar satellite for ocean surveillance powered by a nuclear reactor.

COSMOS 1365 FUEL CORE was lifted into orbit during the mission ‘Tsiklon-2 | US-A 20’, on board a Tsiklon-2 space rocket.

The launch took place on May 14, 1982, 7:39 p.m. from 90.

For more information about the launch, click the button.

Launch to space Tsiklon-2 | US-A 20
Tsiklon-2 | US-A 20

Agency: N/A

Status: Launch Successful

Launch date: May 14, 1982, 7:39 p.m. UTC

Rocket: Tsiklon-2

Launch pad: 90

Location: Baikonur Cosmodrome, Republic of Kazakhstan

...

Latest news about this satellite

There are no fresh news available about this satellite. Check back as we update our databases every day.


Newsletter sign-up

Weekly statistics, charts and insights to help you stay on top of the space industry.